カタログに戻る

PSLV DEB

運用中SSO
NORAD 39094·DEBRIS·🇮🇳 India

打ち上げ Feb 25, 2013 から Satish Dhawan Space Centre

Loading…

次のパス (今後24時間)

TLE

最新Source: Space-Track

元期: Sep 14, 2026, 06:04 UTC

1 39094U 13009J   26257.25284648  .00000917  00000-0  27699-3 0  9992
2 39094  98.3268  84.6507 0007760 251.6277 108.4071 14.44653513710974

AllMySatでPSLV DEBをリアルタイム追跡

Download on the App Store